Theta_e
307 295 293 293 295 299 300 300 300 300 298 296 296 296 296 296 297 298 298 301 303 302 300 301 302 302 304 306 306 308 311 309 310 311 312 314 314 315 315 315 316 316 316 319 318 319 319 320 321 323 326 327 328 329 328 328 328 328 328 328 327 328 328 328 328 329 329 328 328 329 328 327 329 329 330 330 331 331 331 332 331 330 330 331 331 330
304 293 292 296 298 300 301 302 302 300 300 297 296 295 294 296 294 299 298 300 300 299 298 302 301 301 303 306 307 308 309 308 309 310 311 312 313 314 315 315 316 317 319 320 318 318 318 319 321 320 320 321 322 325 327 327 327 328 328 328 328 328 327 327 328 328 328 329 329 328 328 329 329 329 328 329 330 330 331 332 332 331 331 332 331 330
292 289 293 298 300 301 302 302 302 300 298 298 295 295 293 294 298 298 299 301 300 299 297 301 299 300 303 306 308 308 308 309 311 311 312 312 313 313 314 315 315 316 317 318 318 319 319 320 321 320 319 319 320 322 324 326 327 328 328 328 328 328 328 327 327 328 328 329 330 329 329 330 330 332 332 331 331 331 330 330 331 331 332 332 332 332
288 291 295 299 301 300 301 301 300 299 299 296 296 293 291 295 293 291 297 299 299 299 297 299 297 298 301 305 307 309 309 309 312 312 312 313 312 313 313 314 314 315 316 317 318 318 319 320 320 320 319 319 319 319 320 321 323 325 326 327 327 328 328 328 327 326 329 330 330 331 330 330 329 328 329 330 330 330 329 328 330 331 331 332 332 332
289 294 300 299 299 299 297 299 298 297 295 297 297 295 294 294 294 294 295 297 299 300 299 297 296 296 299 299 301 305 309 309 310 311 311 312 313 314 315 315 315 314 315 316 317 318 319 319 319 319 319 319 319 319 318 318 320 322 325 327 328 327 327 328 328 326 327 328 328 328 328 328 327 328 326 327 326 327 328 328 329 330 332 332 331 332
292 296 302 298 298 298 297 295 297 297 293 295 298 297 296 297 295 294 295 295 293 293 298 296 289 290 297 298 299 302 304 304 307 307 309 310 311 312 311 312 314 315 316 315 316 317 319 320 320 320 321 319 319 318 317 317 318 319 322 325 328 328 328 328 328 328 327 326 326 325 324 323 322 322 324 323 324 326 327 327 330 331 331 331 331 331
293 297 296 297 298 297 296 295 298 299 293 292 294 300 299 298 297 296 294 294 289 287 296 299 288 286 297 296 299 300 301 302 304 305 306 308 310 311 312 312 313 314 315 316 316 317 317 318 319 320 321 322 319 318 317 317 318 319 320 323 326 327 328 329 329 328 326 326 326 325 325 325 325 324 326 327 328 329 330 330 329 330 331 331 331 331
294 294 293 294 296 296 295 292 297 298 295 290 300 300 300 298 296 295 295 294 292 297 297 295 295 288 288 294 299 300 300 300 301 303 304 306 308 310 311 312 313 314 315 315 317 317 318 317 318 318 319 321 321 321 320 318 318 319 320 322 324 326 326 328 329 328 326 325 325 325 325 325 326 326 326 328 328 330 330 330 330 330 330 331 331 331
292 292 292 291 291 292 291 296 298 299 295 295 300 301 298 299 298 297 295 293 293 292 288 292 296 289 288 294 299 300 296 298 299 301 303 305 307 308 309 310 312 313 314 315 316 317 318 318 318 318 319 320 321 322 321 320 320 321 322 323 324 325 326 327 328 327 327 325 325 326 326 325 326 327 328 328 328 327 329 328 328 328 329 330 330 331
295 295 294 294 292 288 293 297 300 299 294 299 302 302 300 300 299 297 295 293 292 289 284 289 293 286 286 293 295 298 296 296 298 301 302 304 305 306 307 308 309 311 313 314 314 315 316 318 319 320 320 320 320 320 321 321 322 323 323 323 322 323 325 327 329 328 328 327 325 326 326 326 327 327 327 328 327 327 327 327 327 327 327 328 329 330
296 298 299 295 292 293 294 296 300 300 300 297 302 298 297 297 297 297 296 294 289 282 285 291 293 290 283 291 294 294 295 298 300 301 303 304 305 306 307 308 309 309 310 311 312 313 315 316 317 318 317 316 317 319 319 320 321 322 323 322 322 323 324 326 328 328 328 328 327 326 327 327 327 328 327 326 326 327 327 326 327 328 328 328 329 330
293 295 296 299 300 301 298 295 300 303 302 297 296 294 294 292 293 292 290 293 283 280 288 292 292 293 282 287 295 298 301 301 300 299 301 301 303 304 306 307 308 308 309 310 310 311 313 313 314 315 313 313 314 314 314 317 319 320 320 321 321 322 323 324 325 327 328 328 328 327 328 327 328 327 327 326 326 326 326 327 326 328 328 328 329 329
288 290 295 296 301 300 296 292 296 299 299 296 294 292 286 283 285 279 284 279 280 281 289 293 293 289 287 291 296 298 299 300 301 302 302 302 302 304 305 307 308 308 308 308 308 309 310 311 311 312 311 312 312 313 314 315 316 317 318 318 318 318 321 321 323 324 326 327 327 327 327 328 327 327 327 327 327 328 327 327 326 327 327 327 327 327
285 292 292 293 296 300 299 289 289 289 293 293 290 288 283 280 279 277 281 284 284 288 293 291 295 287 292 294 299 298 300 302 302 302 303 303 303 303 304 306 305 308 307 307 308 309 309 310 311 311 310 311 313 314 315 316 316 315 312 312 312 313 316 317 318 320 323 325 326 327 327 327 327 327 327 327 327 328 328 328 327 327 327 327 327 327
278 279 286 291 286 298 297 295 293 291 292 291 295 292 287 285 282 277 280 278 280 284 288 292 288 284 286 290 300 301 302 303 304 304 305 305 305 305 306 306 306 307 307 308 309 309 309 310 311 311 312 312 313 314 314 312 311 312 312 312 310 310 311 312 314 318 320 323 325 327 327 327 327 327 327 327 328 328 328 328 327 327 327 327 327 328
282 283 290 295 294 296 293 298 300 295 293 294 293 295 288 285 293 283 286 285 285 284 284 285 286 291 291 300 298 300 300 302 303 304 304 304 304 304 303 303 304 304 305 306 307 308 308 309 310 311 311 312 312 311 311 311 311 311 313 314 314 313 312 311 312 315 318 321 324 325 326 326 326 327 327 327 327 327 328 328 327 327 327 327 328 328
284 281 291 294 295 294 294 298 299 298 283 292 292 285 288 298 294 287 287 288 287 285 282 290 289 292 298 298 300 301 300 300 301 301 303 303 305 305 303 304 304 305 306 307 308 306 307 309 310 311 310 311 309 309 309 307 306 306 308 312 313 313 312 312 313 314 316 318 320 322 323 324 325 325 325 325 326 326 327 327 327 327 327 328 328 328
282 283 288 290 288 294 297 298 300 299 299 292 285 290 295 292 288 287 280 285 283 279 282 288 285 288 289 285 299 298 298 300 300 301 301 302 304 303 304 305 306 307 307 306 306 307 307 309 310 310 309 308 307 306 305 304 304 304 306 308 312 312 312 312 313 314 315 316 317 320 321 323 324 324 325 326 326 327 326 326 326 327 326 326 326 326
287 280 286 290 290 294 297 297 295 300 301 293 289 301 289 282 281 286 284 276 276 277 281 286 288 288 290 289 294 294 297 298 300 301 302 301 301 302 303 304 305 305 304 305 305 306 307 308 308 307 306 303 303 302 303 303 303 304 304 305 306 306 306 307 308 309 311 313 314 314 314 315 316 318 321 321 321 322 323 323 324 324 324 325 325 324
287 279 282 288 289 292 295 292 283 289 296 297 297 292 289 290 286 284 284 285 285 280 281 282 287 284 293 294 296 296 298 299 300 300 300 301 302 303 304 305 305 304 305 306 306 307 307 305 303 303 303 302 302 302 302 303 304 304 304 304 305 305 306 307 307 309 310 310 311 311 311 309 310 311 313 314 316 317 317 314 315 316 316 317 316 318
284 286 276 286 289 291 284 290 286 288 286 289 290 288 290 288 292 291 290 286 282 280 281 281 281 286 294 299 298 298 299 300 300 300 303 304 304 302 302 303 304 303 303 304 304 304 303 303 302 301 300 300 300 300 301 302 303 303 304 304 304 305 305 305 305 306 306 308 308 308 307 307 308 309 310 310 311 311 310 309 310 312 313 313 311 312
283 282 277 285 283 284 286 293 292 292 292 290 288 286 288 286 284 280 279 291 286 284 280 281 279 287 295 294 297 299 300 298 299 299 300 302 301 301 302 302 301 301 302 302 301 300 301 301 301 300 300 300 301 301 300 300 301 302 302 302 303 303 303 303 303 303 304 304 304 304 304 303 304 305 306 306 305 303 303 304 304 306 309 309 307 309
288 286 282 280 282 285 289 291 291 289 294 294 292 289 290 289 288 283 277 282 287 287 289 286 283 285 296 295 296 297 298 298 299 298 298 300 301 301 301 301 300 299 299 300 300 300 300 300 300 299 299 300 300 301 301 301 301 300 300 301 301 301 300 300 301 301 302 302 302 301 302 302 302 303 302 302 301 300 300 301 301 303 304 304 304 303
290 283 279 281 286 288 289 287 286 287 290 290 292 294 291 286 288 286 285 286 285 286 284 284 280 286 297 296 296 297 296 296 296 295 298 299 300 301 301 301 300 300 299 299 300 300 300 299 298 299 300 300 300 300 300 300 299 299 299 299 299 299 299 299 300 300 301 300 300 300 300 300 301 301 301 300 300 299 299 300 300 300 302 301 302 302
282 284 282 278 277 280 283 286 287 287 288 287 288 291 292 292 291 289 287 288 282 284 284 283 278 285 295 296 296 296 297 297 298 298 296 299 301 302 301 300 300 300 300 299 300 299 299 298 299 300 300 300 299 299 299 299 299 299 298 298 298 298 298 298 299 299 300 300 299 299 299 298 299 298 298 298 298 298 298 299 299 299 300 301 301 301
285 284 281 275 272 271 271 272 275 279 284 288 290 291 292 291 289 287 282 284 279 283 285 282 282 290 296 298 297 298 298 299 298 298 297 298 299 301 302 301 300 300 300 299 299 299 299 299 299 299 299 299 298 299 298 298 298 298 298 297 297 297 297 297 298 298 299 298 298 297 296 296 296 296 296 296 296 296 296 297 297 298 298 299 299 299
284 286 284 282 280 277 280 283 288 290 287 283 285 288 289 292 292 290 287 283 280 283 282 284 286 287 289 292 294 296 295 296 297 299 299 299 300 301 301 300 300 300 300 299 299 300 298 297 297 298 298 298 297 297 297 297 297 296 296 296 296 296 297 297 297 297 297 296 296 295 295 295 295 295 295 295 295 295 295 295 295 296 296 297 297 297
283 281 283 283 283 284 286 286 287 289 285 286 285 286 289 289 289 287 284 281 287 283 279 286 288 286 287 290 292 293 295 296 299 301 300 300 301 302 302 300 296 298 299 299 299 298 299 299 299 297 296 296 296 295 295 295 295 295 295 294 294 295 295 296 296 295 295 295 294 294 293 293 294 294 294 294 295 295 294 294 295 294 295 295 295 295
283 280 284 283 283 286 287 287 288 288 287 287 287 287 286 288 288 284 285 288 287 283 280 287 287 286 288 290 292 293 295 295 297 301 301 301 300 301 300 301 302 301 301 300 301 301 300 300 298 296 295 295 294 294 293 293 293 293 293 293 293 293 293 294 295 294 294 294 293 293 293 293 293 293 294 294 294 294 294 294 294 294 294 294 294 294
284 282 284 284 282 284 285 286 286 285 286 286 286 287 288 287 286 287 286 289 287 285 287 288 288 288 291 291 293 295 297 298 301 300 299 299 300 301 301 301 301 302 302 302 302 302 301 300 299 297 296 294 295 294 293 293 293 293 293 293 292 292 293 294 294 293 293 293 292 292 292 293 293 293 293 293 293 292 293 293 293 293 293 293 293 294
284 280 285 284 282 281 284 286 287 285 284 283 285 287 288 288 288 288 287 288 287 286 287 287 286 287 293 295 295 297 299 301 300 298 298 299 301 301 301 302 302 302 303 303 303 302 301 300 299 296 295 295 295 294 294 294 293 292 292 292 291 292 292 293 292 292 291 291 291 291 292 292 292 292 292 292 292 292 292 292 292 292 292 292 292 292
285 282 284 282 279 279 283 284 284 285 284 282 282 284 284 285 284 286 286 288 287 285 286 286 285 286 292 295 296 297 296 296 296 297 297 298 300 301 300 300 301 301 301 302 303 303 301 300 299 296 295 295 294 294 294 293 292 292 292 291 291 291 291 291 291 290 290 290 290 291 291 291 291 291 290 291 291 291 291 291 291 291 291 291 290 291
284 283 282 281 278 278 284 285 283 283 281 278 279 283 286 287 288 290 291 291 291 291 287 284 285 292 294 296 295 296 296 295 296 296 297 298 299 301 300 301 302 303 303 302 303 302 302 301 300 299 296 295 294 294 294 293 292 292 292 291 290 290 290 290 290 290 289 289 290 290 290 290 290 290 289 290 290 290 290 290 290 290 290 290 290 291
285 284 282 285 277 279 282 283 284 279 272 274 286 290 288 286 287 286 287 289 292 292 290 292 292 295 295 295 295 295 295 295 296 298 300 299 300 301 301 302 303 303 303 303 303 302 301 301 301 300 298 297 296 294 294 294 293 292 291 290 290 290 290 290 289 289 288 289 289 289 290 290 290 289 289 289 289 290 290 289 289 289 290 290 291 291
284 284 282 284 279 278 280 280 276 271 274 286 290 292 291 290 290 289 289 291 292 293 294 293 294 294 296 297 297 297 298 299 299 299 300 301 302 302 302 302 302 303 303 303 303 301 300 299 299 297 294 293 293 293 292 292 291 290 289 289 289 289 289 288 287 287 287 287 288 288 289 289 288 288 289 289 289 290 290 289 289 289 290 290 290 290
283 283 283 280 281 281 277 278 270 273 284 287 287 288 293 292 291 290 288 290 292 293 294 292 294 295 296 296 297 298 298 299 300 300 300 301 302 301 301 302 303 304 303 304 304 303 301 299 298 295 293 292 291 291 291 290 290 289 289 289 288 288 288 288 287 287 287 287 287 287 288 288 288 288 288 288 288 288 288 288 289 289 289 290 290 290
286 284 283 279 282 276 277 277 277 284 282 285 285 286 289 287 288 286 282 286 292 293 294 293 294 295 296 296 297 298 296 296 295 297 300 299 300 301 302 302 303 304 305 305 305 305 305 303 299 296 292 290 289 289 289 289 288 288 287 287 287 287 287 288 287 287 287 286 286 286 287 287 287 288 288 288 288 288 289 289 288 289 290 289 289 289
288 282 284 280 279 281 277 275 276 276 273 280 288 292 293 294 293 293 289 286 293 294 295 294 293 294 295 296 297 296 296 294 292 294 299 300 301 302 302 304 304 304 304 304 304 303 301 301 300 296 292 290 290 290 288 287 286 285 285 284 285 285 286 286 286 287 287 287 287 287 288 288 288 288 288 289 288 288 288 288 288 288 289 289 288 288
287 287 285 281 279 279 277 274 275 273 277 286 288 290 292 293 294 294 287 282 291 294 295 295 293 294 295 295 295 294 293 288 290 295 300 301 301 301 301 302 301 302 302 303 303 302 299 298 296 294 292 291 289 288 288 287 286 286 284 284 285 285 285 285 285 285 285 285 286 286 287 288 288 288 288 287 287 288 288 287 287 288 289 288 288 288
282 282 282 279 278 279 278 276 275 279 279 285 288 289 291 293 294 289 276 278 290 293 295 295 294 294 295 296 296 293 292 289 291 296 300 302 301 300 300 300 299 298 296 295 295 298 297 293 291 291 291 290 289 288 287 288 288 287 286 285 285 285 285 285 286 286 286 286 286 287 287 287 287 287 287 287 287 287 287 287 287 287 287 287 287 287
280 280 281 277 279 279 279 277 279 281 287 287 286 286 290 293 290 279 274 284 292 294 295 295 295 296 296 296 296 292 295 297 297 296 297 297 296 295 292 292 295 296 296 295 293 291 293 292 293 292 291 290 288 287 287 288 287 286 286 286 286 285 285 285 286 285 285 286 286 286 286 287 287 286 286 287 286 286 286 286 286 286 286 286 286 286
280 281 280 281 278 277 279 276 277 281 288 288 287 290 292 288 278 278 288 289 291 292 292 294 295 296 296 296 296 296 298 297 291 293 293 295 297 293 290 289 288 287 288 289 288 290 292 292 291 291 290 288 287 288 288 288 287 286 286 286 286 286 286 286 285 285 285 285 285 285 285 285 285 285 285 285 285 285 284 285 285 285 285 285 285 284
281 277 278 278 280 280 279 276 275 273 284 291 288 288 291 285 285 292 292 288 289 289 291 292 293 295 295 294 296 297 295 293 294 294 294 293 292 290 289 288 289 289 288 288 288 289 290 290 289 288 288 287 287 287 288 287 286 286 286 286 285 285 285 285 285 285 285 284 284 284 284 284 284 284 284 284 284 284 283 284 283 284 284 284 284 283
285 279 279 281 284 277 276 275 276 283 286 290 290 285 289 291 293 293 293 291 290 289 290 291 292 293 294 295 294 295 295 293 292 292 291 290 288 287 287 287 287 288 288 288 289 288 289 288 287 286 286 286 286 287 287 287 286 286 285 284 285 285 285 285 285 285 284 283 283 283 282 282 283 283 283 283 283 283 283 282 282 283 283 284 284 283
286 282 284 280 285 282 280 283 288 285 288 291 293 294 294 294 293 289 290 291 293 292 289 291 292 292 293 294 294 294 293 292 292 291 293 293 290 288 287 286 287 287 287 287 286 286 287 287 285 285 284 285 285 286 287 287 285 284 284 284 285 284 284 284 284 283 283 283 282 282 282 282 282 282 282 282 282 282 281 281 283 282 283 283 283 283
287 287 287 286 284 289 289 289 290 287 287 289 290 290 290 293 293 290 289 289 291 292 290 292 293 292 291 292 292 290 293 293 291 289 289 288 288 286 285 285 284 285 285 285 285 285 285 285 284 284 283 284 285 286 286 286 286 283 284 284 284 284 283 283 282 282 282 282 282 281 281 280 280 280 280 281 282 281 282 281 281 281 282 282 282 282
285 285 285 284 286 284 281 290 289 289 289 288 290 291 291 290 290 290 289 290 292 289 289 289 290 292 291 291 293 292 291 290 292 291 289 287 287 286 285 285 284 284 285 284 284 284 284 284 283 283 283 283 284 285 285 285 286 285 284 284 284 283 283 282 282 281 282 282 281 281 281 281 281 280 280 281 281 281 281 281 281 281 280 281 280 280
282 288 284 285 285 283 284 286 286 287 289 291 290 290 290 291 291 289 288 288 287 287 288 288 287 288 289 290 292 292 290 289 289 288 287 287 286 285 285 284 283 283 284 284 284 284 284 284 283 283 283 283 284 284 285 284 284 284 283 283 283 283 282 282 282 281 281 281 281 280 280 280 279 280 280 280 281 281 280 280 280 280 279 279 279 279
284 285 281 285 284 286 288 289 287 288 289 289 289 289 290 291 291 287 287 287 286 286 286 286 285 288 289 292 290 290 289 288 289 288 286 286 284 284 284 284 283 284 283 283 283 284 284 284 283 283 283 282 283 283 283 282 282 282 282 282 282 282 281 281 280 280 280 280 280 279 280 280 280 280 279 279 279 279 279 278 279 279 279 279 279 279
285 282 285 284 282 282 283 285 287 284 284 288 288 291 291 290 286 289 290 286 285 286 286 287 286 284 286 288 290 291 292 289 287 286 286 285 285 284 283 283 283 283 283 283 284 284 284 283 283 282 281 281 282 281 281 281 281 281 281 281 281 281 280 279 280 279 279 280 279 279 278 278 278 278 278 278 278 277 277 277 277 278 278 277 277 278
284 285 285 282 282 281 287 287 290 290 290 291 292 292 292 292 287 288 288 289 288 288 288 288 288 286 286 286 287 289 291 289 287 286 286 285 284 284 283 283 283 283 282 283 283 283 283 282 282 281 280 280 281 280 280 279 280 280 280 280 281 281 280 280 279 278 278 277 277 277 278 278 278 277 277 277 276 276 276 276 276 276 277 276 276 277
Wind_Speed
6 9 10 11 13 17 18 18 17 14 4 7 3 8 10 11 11 3 5 2 2 5 13 16 18 17 16 17 18 18 7 10 12 14 13 12 12 12 11 12 12 12 12 10 3 4 8 9 7 7 6 7 9 10 11 11 12 13 12 11 13 10 12 10 10 10 10 10 9 9 10 11 10 10 10 10 10 10 10 11 12 12 12 12 13 13
7 9 15 18 18 16 17 16 16 16 15 11 7 7 10 13 13 10 9 6 4 7 10 13 16 18 18 13 16 19 14 13 13 14 14 14 13 12 13 13 12 12 6 5 7 8 8 8 8 5 5 7 9 10 10 12 13 12 13 13 11 9 11 12 12 10 10 10 11 10 10 9 8 9 10 10 9 10 9 11 11 12 12 13 12 12
7 13 18 20 15 13 13 15 17 18 18 16 12 8 8 9 9 2 4 5 3 4 10 6 11 15 15 14 14 17 20 17 11 14 15 14 14 12 11 11 11 9 10 10 12 10 9 10 9 7 7 8 11 9 9 11 10 10 11 11 10 10 10 11 12 10 11 11 11 11 7 7 6 6 7 7 7 8 9 10 12 12 12 12 12 12
12 14 24 16 12 14 13 12 16 17 17 14 14 14 13 6 5 8 8 6 5 7 2 5 13 14 15 13 14 15 17 16 14 12 14 12 13 12 12 11 11 12 11 12 12 12 11 11 9 7 8 10 7 7 8 10 11 8 9 10 10 10 11 10 11 12 11 9 9 9 7 4 5 5 5 7 7 8 10 12 11 11 12 12 11 11
15 9 3 10 15 14 14 11 14 14 14 16 16 15 15 11 6 9 1 6 4 8 2 3 9 12 13 15 12 12 15 15 16 16 14 13 12 11 10 10 11 12 12 12 14 13 10 10 10 10 9 7 8 9 9 9 7 6 9 10 10 10 11 10 10 11 10 7 7 7 6 5 4 5 5 6 8 10 11 11 11 13 12 11 11 11
18 17 1 8 12 13 15 16 16 14 13 14 19 19 18 14 14 2 3 5 5 9 11 8 9 14 14 19 18 13 11 16 15 17 18 16 16 13 15 15 13 13 12 13 14 14 12 10 10 10 8 9 9 9 9 8 6 6 8 9 9 8 9 10 11 11 10 10 9 8 8 8 9 9 9 10 11 10 10 11 9 8 10 11 10 10
15 11 12 5 8 15 18 16 15 14 13 13 13 17 18 16 13 12 6 4 12 12 2 10 13 13 5 10 14 16 17 20 16 16 20 18 16 15 15 14 13 14 13 13 14 14 14 13 11 12 10 9 9 9 6 5 7 9 9 8 8 9 9 9 10 11 10 10 10 12 11 10 10 10 9 9 8 7 7 6 8 8 8 10 11 11
7 11 10 12 9 10 12 16 15 16 12 12 7 9 14 18 18 15 13 13 11 7 2 2 9 13 15 14 13 14 16 17 18 19 21 18 15 15 14 13 14 13 14 13 14 16 15 14 13 14 13 10 10 6 5 6 7 9 10 10 10 9 9 8 8 10 11 11 10 11 12 10 10 11 10 8 8 7 6 7 8 8 8 9 10 10
5 7 10 11 13 12 12 11 10 15 13 5 3 8 13 15 17 16 14 13 13 11 14 10 6 11 16 14 12 10 14 17 18 18 17 16 14 13 12 12 12 15 16 16 14 15 16 14 13 13 13 12 7 4 6 7 7 8 8 9 10 11 11 10 12 11 12 11 11 11 10 10 10 11 10 7 6 7 7 9 8 8 8 8 10 10
1 5 8 11 11 13 13 12 11 11 13 10 7 6 10 11 14 16 14 14 11 8 16 15 13 13 18 14 10 13 18 20 19 16 14 12 13 12 12 13 15 14 13 13 16 15 15 15 14 12 11 9 6 5 6 7 7 7 8 9 11 12 10 10 12 12 13 13 11 10 12 13 11 9 9 8 8 8 8 9 9 8 8 7 7 9
0 1 4 7 11 13 13 14 12 9 11 9 4 10 9 8 10 11 12 11 8 15 12 16 18 18 16 13 13 12 13 17 11 9 9 10 10 12 12 12 11 12 12 12 14 16 16 14 12 7 8 8 5 3 5 6 7 7 8 9 11 12 10 9 10 12 13 12 12 12 12 14 13 12 9 8 9 9 9 9 9 8 7 7 7 7
6 2 4 2 3 4 7 8 4 3 4 4 3 8 6 7 2 4 4 5 10 11 10 18 19 21 19 11 8 14 12 11 15 17 13 8 12 11 10 11 12 13 13 12 12 13 13 13 10 5 8 8 8 5 5 5 6 7 8 8 11 11 11 9 9 10 11 11 12 12 12 12 12 12 9 10 10 9 10 9 8 7 6 7 6 6
14 14 6 2 3 7 9 11 6 7 7 9 6 6 10 6 6 8 6 10 11 10 7 16 16 15 23 23 9 5 3 4 7 8 11 10 9 11 11 11 9 8 8 9 9 9 9 9 7 4 5 6 8 8 9 9 8 8 8 9 10 11 10 8 7 9 10 10 11 11 12 12 10 11 11 10 10 8 8 7 7 7 6 6 6 7
6 11 13 9 8 6 8 12 8 8 12 13 13 11 10 13 10 11 10 4 6 10 2 6 14 17 10 18 20 27 22 14 8 8 7 8 9 10 9 8 9 8 10 10 10 9 9 9 7 7 9 10 9 11 11 9 6 4 4 6 8 11 7 6 6 8 10 12 12 11 11 10 9 9 9 9 8 8 7 6 6 7 7 6 7 6
7 7 12 13 10 12 13 14 13 6 10 14 10 11 10 7 7 11 9 13 12 10 3 5 8 5 9 11 4 12 15 22 23 15 11 10 8 8 8 7 9 7 7 7 8 8 8 8 8 8 9 9 9 5 2 1 3 3 5 6 8 9 7 6 7 8 10 10 10 9 8 8 7 7 7 8 7 6 6 6 5 5 5 6 6 6
15 12 7 23 12 15 14 14 9 8 3 9 8 7 11 13 2 8 3 7 10 4 4 6 8 3 12 6 4 0 3 4 7 13 16 16 10 8 7 9 9 9 9 8 8 8 8 8 8 7 6 7 4 3 2 3 2 3 5 5 7 8 7 7 8 8 8 8 6 7 7 7 7 6 5 6 5 5 5 5 6 6 6 6 6 5
6 12 7 12 13 10 16 14 12 10 10 9 10 11 11 3 10 5 10 1 7 5 13 4 9 12 9 18 16 7 4 5 6 7 10 13 14 12 12 11 12 12 13 8 7 7 8 7 7 6 6 4 3 3 3 1 1 2 3 4 5 5 4 5 6 7 6 6 6 6 6 6 6 7 8 7 7 6 6 6 6 6 6 5 5 4
6 7 6 6 10 9 4 10 13 16 4 3 10 8 6 5 5 3 8 1 8 12 8 12 14 12 11 12 5 16 13 13 11 10 11 10 6 8 10 11 11 9 6 3 4 7 9 8 7 4 2 1 1 1 2 2 2 1 1 1 2 4 5 4 4 5 5 6 7 6 6 6 5 6 6 7 7 6 6 6 6 6 6 5 5 3
4 10 6 2 1 2 3 7 11 12 3 7 4 3 11 6 9 5 2 9 2 6 5 11 15 15 14 14 2 4 13 13 13 15 13 7 8 11 12 12 10 5 3 5 5 6 7 5 1 1 1 2 2 1 1 1 2 2 3 2 2 3 3 2 2 2 2 2 3 3 3 3 1 2 4 4 3 3 5 5 5 5 5 5 5 5
1 6 3 1 2 2 5 9 12 11 5 3 2 4 2 4 8 12 10 5 7 10 5 5 13 12 13 14 16 8 6 6 5 7 10 13 14 14 12 8 1 2 5 6 7 4 2 3 2 2 2 2 1 1 0 1 1 3 4 5 4 3 2 3 4 3 4 4 5 5 5 4 3 2 2 2 2 2 2 2 0 0 1 0 0 1
6 6 11 2 1 3 6 8 13 13 13 9 9 12 5 5 2 4 5 11 10 7 11 7 7 3 8 9 11 9 12 7 10 11 8 8 1 3 5 5 3 3 4 4 4 4 1 1 2 3 3 3 2 2 1 1 1 1 3 5 4 3 3 5 4 5 5 5 6 6 6 5 4 4 4 4 4 4 3 3 2 1 1 1 3 2
4 4 9 3 2 7 7 10 10 11 13 13 13 14 15 13 10 10 8 1 3 9 9 8 11 3 2 3 3 7 2 3 4 5 8 8 5 4 4 4 2 3 4 4 3 2 1 2 3 3 2 2 2 3 3 1 1 1 4 4 4 3 4 4 5 6 6 6 5 7 6 6 5 4 5 6 6 6 5 4 4 3 3 5 5 4
8 2 7 9 6 9 7 2 2 3 6 13 13 11 12 10 9 10 12 9 3 9 7 10 9 9 3 0 0 2 3 4 4 2 6 5 5 4 4 5 3 1 3 3 1 0 1 1 2 3 3 3 3 3 3 2 1 1 3 5 4 5 5 5 5 5 5 5 6 6 6 6 6 6 7 7 6 6 5 5 4 4 5 5 5 6
1 6 6 8 5 4 5 1 1 3 4 10 11 11 8 12 13 13 11 7 10 6 10 9 12 7 1 2 2 2 4 5 4 5 6 4 3 4 5 4 3 1 0 1 0 0 1 1 1 2 4 3 3 3 3 3 2 2 3 5 5 6 5 5 4 5 5 6 7 6 7 7 6 7 7 7 6 6 5 5 4 4 5 4 4 5
8 6 9 9 5 5 6 3 8 3 0 5 10 13 15 13 16 10 3 3 8 8 7 8 14 8 4 1 2 2 2 1 3 2 5 2 3 4 3 3 2 2 1 2 2 2 2 2 2 2 2 3 3 3 3 3 2 2 4 5 5 5 4 4 3 4 5 6 8 7 8 8 7 7 7 6 5 6 5 5 4 4 5 5 5 5
8 7 12 13 10 11 10 8 11 12 12 7 8 13 15 18 17 11 14 10 14 10 14 12 10 9 5 6 4 3 2 1 1 3 2 2 3 4 3 2 1 1 2 1 2 2 3 3 2 2 2 3 3 3 3 2 2 3 4 5 4 5 4 4 3 4 5 5 7 7 8 7 7 7 7 6 6 6 6 5 5 5 5 5 6 6
3 6 10 13 12 13 10 6 4 6 4 8 6 11 14 15 17 16 10 12 15 7 13 12 13 13 17 15 14 14 9 11 7 5 3 4 5 5 4 3 2 2 3 3 3 2 1 2 4 3 3 3 4 3 3 3 2 2 4 5 5 4 4 4 4 4 5 6 7 8 8 7 7 6 6 6 6 5 6 6 6 6 6 5 6 7
3 6 13 15 18 16 14 12 7 13 11 11 13 12 13 15 16 14 14 13 10 10 17 10 15 15 22 21 17 11 13 15 8 5 5 5 4 4 2 0 3 4 3 3 3 4 5 4 3 4 3 4 3 3 3 3 2 3 4 4 4 3 4 3 5 6 6 6 7 8 7 7 6 6 6 6 6 6 6 6 6 6 6 6 8 8
5 6 10 12 18 18 16 12 4 7 9 10 14 12 14 14 16 18 17 19 14 13 15 11 12 18 21 22 17 14 15 15 13 10 5 3 3 3 2 2 2 3 3 5 7 7 7 6 5 5 5 4 3 4 4 3 3 3 4 4 3 3 4 3 5 6 6 7 8 7 6 6 5 6 6 6 6 7 7 7 6 6 6 7 7 5
1 7 9 11 17 16 15 14 7 5 5 5 8 13 16 15 16 16 17 16 16 13 12 15 13 18 17 20 18 16 13 10 3 1 2 3 5 5 4 2 3 4 5 6 7 5 5 4 5 6 7 7 6 5 4 4 3 3 4 4 4 4 3 3 4 6 6 7 7 6 6 6 6 6 6 7 7 7 6 6 6 6 7 7 6 6
5 7 6 8 12 15 17 15 14 13 10 12 11 10 10 10 14 16 16 17 15 15 15 16 18 17 15 18 19 8 1 5 6 5 7 8 7 5 6 5 2 7 8 8 8 7 6 6 6 6 7 8 9 9 7 6 5 4 4 4 4 4 3 3 5 6 6 7 6 6 6 6 6 6 7 6 6 6 6 7 5 6 7 7 6 7
8 5 3 3 4 5 7 11 14 14 17 17 16 10 7 9 12 13 15 15 15 18 17 17 16 13 16 21 19 13 7 10 14 16 15 12 10 9 8 7 8 11 12 10 10 8 8 9 9 9 9 8 7 8 8 7 6 6 5 4 4 4 4 4 5 6 6 6 5 5 6 6 6 7 6 6 6 6 6 6 6 7 7 6 7 6
6 4 4 6 10 12 6 10 12 14 13 13 15 16 19 17 16 15 14 14 16 16 13 15 18 18 21 16 13 12 11 13 15 15 15 15 18 9 7 9 11 11 12 10 8 9 10 10 10 9 9 9 10 10 9 9 9 7 7 6 5 5 5 5 6 7 7 5 5 5 5 5 6 7 7 6 6 6 6 6 7 7 7 7 5 5
7 8 10 4 5 6 4 8 8 8 11 8 11 21 22 21 19 16 17 19 19 17 14 15 15 15 15 17 17 17 12 13 15 16 17 16 11 7 10 9 9 10 10 10 8 3 4 3 4 7 8 6 6 4 6 7 9 9 7 7 6 6 6 7 6 6 6 5 5 5 5 6 7 7 7 6 6 6 6 7 8 6 5 5 5 6
7 8 10 6 2 8 4 5 5 14 9 9 9 10 17 21 20 22 23 21 18 18 19 18 18 20 20 17 15 14 12 13 14 14 14 14 12 10 10 9 9 10 12 10 7 7 9 10 10 8 8 8 8 7 7 6 6 8 8 7 8 6 7 7 7 6 5 6 5 5 5 6 6 7 6 6 6 6 7 8 6 6 5 5 5 6
12 11 8 3 6 2 1 7 7 4 2 3 1 1 9 19 23 20 22 23 24 22 20 20 22 23 22 20 18 12 8 7 7 6 7 5 5 10 11 11 11 10 10 9 9 9 10 10 10 12 11 9 10 7 7 8 8 8 8 7 7 7 7 7 8 7 6 6 5 4 4 5 6 6 6 6 6 7 7 6 6 6 4 5 6 5
15 11 7 7 5 7 3 8 11 4 9 6 3 7 12 13 15 18 17 21 21 18 17 19 23 24 23 22 21 3 5 2 4 10 10 12 12 13 15 15 14 12 11 9 8 9 8 6 5 6 7 8 8 10 8 9 9 8 8 8 6 6 7 8 8 6 6 6 5 4 3 4 6 6 6 6 7 7 7 6 6 5 3 6 6 6
15 13 7 9 6 9 8 5 4 5 10 11 15 3 9 8 8 11 11 15 11 20 22 22 24 24 25 23 14 7 6 3 8 12 15 16 15 13 11 10 4 5 7 7 6 6 5 5 5 7 9 12 10 6 6 7 9 11 10 7 6 6 7 7 7 6 6 6 6 5 5 5 6 7 6 6 7 7 6 6 5 5 3 5 6 6
12 13 12 10 7 2 6 8 6 7 8 11 4 9 8 7 11 7 7 14 14 19 21 23 25 25 23 21 11 11 7 7 14 15 15 11 11 11 11 11 9 7 8 9 10 9 5 5 6 8 9 11 12 11 10 10 10 9 9 8 7 6 8 7 7 6 6 6 5 5 5 4 5 6 6 6 6 6 6 6 5 4 4 5 6 5
11 10 9 9 10 10 7 7 9 5 9 2 9 6 8 10 11 9 5 10 12 12 18 20 24 25 22 19 9 11 13 12 18 14 3 9 11 11 14 13 11 8 5 2 1 2 5 8 10 9 11 11 11 12 13 12 10 10 10 9 7 7 8 8 8 7 7 7 6 6 5 4 5 6 6 7 6 5 6 5 5 5 5 5 5 5
7 6 8 11 11 12 12 7 5 6 9 4 5 4 6 9 10 9 11 13 7 11 14 18 20 20 17 14 11 13 17 17 3 5 7 8 7 5 1 2 2 4 7 6 6 6 6 7 8 10 11 10 12 12 11 10 11 10 9 10 9 9 8 8 8 8 7 6 6 6 6 5 5 6 5 5 6 5 5 4 5 4 5 5 5 5
4 5 4 8 9 8 7 5 8 7 5 8 3 10 12 10 7 16 9 3 1 3 2 4 12 13 9 8 9 14 9 4 4 3 5 6 7 5 4 4 5 4 4 3 5 6 7 6 7 8 9 10 12 12 12 11 11 10 10 9 9 9 8 9 8 7 7 7 7 7 6 6 5 4 4 3 3 4 5 4 3 4 5 3 5 5
4 6 6 8 4 2 2 6 1 7 2 11 12 3 8 9 9 1 3 2 2 3 3 6 8 8 5 8 10 10 3 4 7 7 6 6 6 6 7 6 7 8 7 7 6 5 7 7 7 8 9 9 10 10 10 11 12 11 9 10 10 9 9 8 8 8 8 7 7 6 6 5 5 4 3 2 2 4 6 4 4 3 3 5 4 5
2 6 3 3 4 3 6 6 8 4 4 9 13 9 10 11 1 4 5 4 2 3 4 2 5 5 5 8 7 7 6 6 3 5 5 4 4 4 4 3 3 4 5 3 5 9 7 8 7 8 9 9 8 9 8 13 12 10 10 11 9 9 9 9 8 8 8 6 6 6 6 5 5 4 3 3 3 4 5 5 4 3 3 2 2 2
10 9 3 4 2 5 6 8 4 0 3 7 10 6 12 17 9 2 3 2 2 3 3 1 4 5 6 6 4 6 5 4 5 4 5 5 5 5 5 5 5 5 5 7 7 6 6 9 11 10 11 9 9 7 7 5 13 13 13 10 9 9 9 8 7 7 7 7 6 6 5 5 5 4 4 3 3 5 5 4 2 3 2 1 1 1
2 5 1 1 4 6 9 11 2 2 4 11 10 5 5 6 4 1 3 2 5 3 4 3 3 5 5 4 5 2 5 6 6 5 3 2 3 4 4 5 4 4 5 7 7 7 8 9 11 12 13 11 8 8 6 7 12 16 12 10 9 9 8 8 8 7 7 7 7 7 6 7 6 5 5 4 4 4 3 3 2 2 2 1 1 1
4 2 1 5 1 1 8 7 15 15 9 9 10 8 5 4 4 1 4 3 6 2 4 4 4 4 6 6 6 5 6 6 7 6 5 4 5 5 6 6 5 6 8 8 7 8 9 9 11 10 10 11 9 8 8 6 7 11 11 10 9 8 8 8 8 8 7 7 7 6 5 6 5 4 4 3 3 3 3 2 1 2 2 2 2 2
6 5 5 10 8 9 10 4 3 5 4 4 4 6 10 11 9 2 0 3 4 5 4 2 1 2 4 4 4 5 5 5 6 6 5 4 4 5 5 6 7 7 6 7 9 8 8 9 11 12 11 11 9 9 8 8 8 8 8 8 8 8 8 8 8 8 7 7 6 5 4 5 6 5 4 3 2 2 2 2 2 3 3 3 3 3
1 3 4 3 6 12 15 15 4 7 7 6 7 10 9 10 7 3 2 4 4 5 5 2 2 1 4 3 4 4 7 6 5 5 6 5 5 5 6 7 7 8 9 10 9 9 11 10 10 10 10 10 9 9 8 8 8 7 8 8 7 8 10 8 8 8 8 6 5 5 4 4 3 3 3 3 3 3 3 3 2 3 3 4 3 3
1 8 4 0 8 11 11 2 7 5 6 5 9 13 14 11 5 1 7 7 5 7 6 4 2 1 3 3 5 5 7 6 5 6 6 5 5 7 8 8 8 10 10 10 9 7 9 10 11 11 11 10 9 9 9 9 8 6 6 6 6 7 11 9 7 8 6 5 5 5 4 4 4 3 3 3 3 3 3 4 5 4 3 3 7 8
11 12 5 8 10 14 6 7 9 8 11 8 7 9 12 8 10 11 13 12 11 9 8 7 6 3 4 6 4 5 5 8 9 6 6 5 6 6 7 9 11 10 11 11 11 10 10 12 11 11 11 11 10 8 8 8 8 7 5 4 5 5 8 7 6 5 5 4 4 4 4 4 4 3 3 3 2 2 2 3 3 5 8 8 8 9
Wind_Direction
174 209 216 217 221 214 213 215 222 230 338 352 283 248 234 232 236 115 202 163 218 249 230 228 236 242 235 220 226 240 195 218 229 233 232 232 231 230 227 225 224 226 231 239 233 217 235 239 232 220 212 215 218 221 220 216 215 213 211 206 213 203 200 202 200 202 200 202 206 214 219 223 217 218 217 218 215 219 222 219 219 222 224 225 225 223
210 220 228 226 225 220 220 219 226 236 241 259 285 255 240 234 243 225 201 166 192 223 247 235 243 244 243 231 224 236 239 225 220 230 236 237 234 234 233 234 232 234 243 263 256 233 233 239 229 211 217 214 221 223 215 217 218 215 213 214 212 197 198 203 204 200 201 203 201 199 209 212 214 207 207 213 211 214 216 218 219 221 222 221 220 221
208 221 231 227 228 232 232 220 222 230 236 238 244 254 263 246 238 73 200 167 153 194 251 245 251 250 248 238 224 229 241 246 229 227 237 237 235 233 235 240 245 246 248 246 246 244 233 237 230 213 219 221 224 229 210 222 223 218 214 217 210 204 203 206 206 204 205 204 207 207 209 201 207 214 217 216 213 209 213 216 220 221 221 218 217 214
223 230 233 229 227 231 237 229 223 226 233 236 233 236 239 248 200 243 207 189 190 209 269 233 252 259 255 239 232 232 240 253 252 238 239 246 249 244 241 240 243 247 250 251 247 243 232 229 234 216 223 225 214 224 231 224 221 217 217 213 207 210 209 209 205 207 213 209 209 214 221 209 218 234 217 221 220 217 215 222 219 221 220 217 217 210
222 233 278 217 222 223 230 228 223 222 224 227 235 236 240 229 231 251 324 196 205 233 302 267 273 263 246 243 233 224 234 248 255 251 241 245 247 250 255 253 245 250 249 252 257 255 247 233 230 223 219 216 220 223 219 225 215 213 217 213 208 212 212 212 207 201 208 206 202 207 218 230 233 241 236 226 226 218 220 225 219 221 216 216 216 215
241 234 49 214 213 215 220 225 220 216 227 232 227 230 236 239 245 214 265 251 240 244 213 211 266 257 241 237 237 233 206 227 236 247 246 237 239 231 238 241 240 239 241 249 253 256 254 248 245 239 220 214 223 228 226 223 226 223 228 225 216 217 217 215 211 201 197 205 204 200 205 211 217 229 215 216 218 208 211 217 219 217 211 211 214 214
244 240 222 200 208 209 217 225 224 217 233 234 228 220 231 236 243 241 228 218 247 245 220 185 236 268 238 225 227 222 225 227 216 223 240 238 232 232 233 234 236 236 238 238 245 253 254 250 248 249 242 223 221 227 212 196 218 222 226 223 215 219 221 215 210 193 191 203 206 207 209 211 210 217 223 221 221 219 218 214 211 209 206 208 210 214
216 228 216 221 228 219 215 221 220 219 225 240 242 214 222 228 231 233 238 240 255 270 78 207 233 262 269 249 238 221 224 232 230 223 230 233 230 230 234 233 235 238 239 241 239 243 242 241 241 247 247 242 235 221 190 203 209 215 219 215 212 214 218 214 201 192 192 200 204 207 212 216 220 222 230 213 216 220 227 217 213 213 215 208 209 214
204 202 205 211 220 232 229 224 228 214 226 250 191 194 214 220 228 228 232 239 247 256 255 234 202 260 255 259 248 208 232 234 233 226 226 228 234 235 237 239 238 238 240 240 243 247 249 244 235 235 246 248 240 199 211 209 211 211 216 218 215 216 217 219 202 199 198 202 206 205 209 216 224 228 233 234 215 224 219 227 224 217 218 211 209 213
157 243 210 203 213 228 231 226 230 223 228 233 134 223 251 232 229 225 227 231 232 222 243 236 222 247 264 253 245 203 229 245 241 232 221 211 225 234 237 235 238 238 239 241 245 250 253 251 246 235 237 244 232 215 215 217 216 213 213 215 214 218 218 215 206 201 203 202 206 209 212 216 221 219 228 227 222 218 218 222 221 212 213 215 212 210
353 14 332 204 219 226 227 228 224 227 234 29 211 221 234 226 226 226 229 226 232 233 226 225 224 231 265 250 237 225 213 232 246 250 231 196 205 228 235 234 234 238 239 240 239 240 244 247 249 239 237 249 234 195 223 221 216 214 214 215 216 220 220 214 209 201 204 204 206 214 214 214 219 219 218 221 223 220 217 223 225 220 216 216 217 209
231 203 224 226 341 285 233 218 44 225 194 157 207 224 212 226 314 235 222 208 224 235 206 216 218 222 241 253 228 247 247 229 240 247 248 184 204 212 230 237 231 231 234 237 241 245 249 257 254 220 243 243 247 222 218 225 221 220 218 216 223 224 221 217 211 206 210 208 208 216 218 218 220 219 216 221 226 218 220 222 229 225 221 217 214 209
231 228 229 213 193 230 206 220 197 188 178 211 205 222 205 206 185 226 167 218 216 232 219 206 204 227 232 250 251 272 249 264 245 254 254 250 204 204 221 233 232 228 242 249 252 253 256 253 256 232 245 240 239 229 225 222 215 214 215 217 223 230 225 219 206 213 217 215 214 215 219 223 225 226 228 230 232 230 227 225 226 223 222 219 214 213
242 222 218 240 267 190 217 203 177 210 204 208 206 203 206 213 207 223 209 227 240 234 236 200 197 233 266 271 246 252 248 253 243 236 237 238 230 216 222 237 243 234 230 234 238 241 248 254 252 241 239 239 229 223 220 221 222 225 229 230 230 241 238 217 212 221 222 222 222 221 221 224 224 226 225 230 235 235 234 230 228 227 233 231 225 221
224 207 213 190 220 169 200 214 201 216 197 214 206 205 230 229 226 224 216 222 223 245 186 159 191 222 192 232 33 238 245 237 240 231 223 220 217 223 225 234 248 253 246 237 241 239 241 249 250 247 240 241 237 230 244 289 256 258 252 239 236 245 237 214 219 217 221 223 222 221 221 223 226 229 229 232 235 237 231 230 234 237 236 237 239 229
220 246 173 186 196 178 196 204 222 197 205 208 207 215 227 234 326 254 269 249 237 193 154 195 214 202 222 251 141 272 354 267 259 240 242 242 224 210 233 235 232 236 235 227 228 236 238 241 245 240 241 240 242 231 243 240 236 245 252 251 245 242 237 214 214 218 218 221 217 215 219 223 228 233 238 238 233 236 235 238 237 240 236 238 242 238
212 239 131 193 211 185 197 188 192 183 223 182 183 209 220 14 226 267 268 137 337 263 242 168 228 240 300 276 267 242 191 252 223 226 229 233 237 227 230 233 235 239 244 235 211 225 234 231 230 228 224 221 224 226 217 193 198 240 258 251 232 220 212 209 208 209 206 207 204 206 211 217 218 225 229 234 236 230 229 231 235 238 240 242 241 244
267 240 71 159 211 216 262 207 190 204 215 104 205 202 71 75 57 235 259 211 234 245 239 209 213 228 217 271 204 237 210 211 217 216 221 221 240 251 251 243 238 242 258 309 249 230 230 225 221 211 204 159 166 207 184 170 173 190 199 278 213 179 173 170 176 182 186 189 190 183 189 200 210 217 220 227 232 229 232 230 235 240 244 242 246 237
160 270 208 243 35 108 108 192 220 217 352 225 189 158 195 193 227 183 248 239 232 233 253 224 215 223 208 229 200 179 216 218 217 229 240 223 221 239 248 249 240 248 272 251 233 224 225 221 217 69 94 80 85 80 241 152 163 148 111 70 42 61 53 70 72 100 98 110 105 83 79 72 86 213 230 228 227 222 229 231 235 237 245 246 243 241
178 234 243 309 151 164 179 190 214 208 205 359 29 240 350 286 228 205 203 276 256 260 253 232 195 235 216 232 240 217 178 200 212 227 240 242 231 228 239 257 9 246 237 233 237 244 21 41 51 68 99 111 120 155 118 125 190 134 115 101 96 97 96 88 73 75 88 75 84 86 85 71 70 81 135 152 160 149 129 91 97 201 209 176 9 303
239 156 257 139 24 133 205 195 215 199 194 204 214 229 200 218 24 329 260 224 229 240 245 267 236 232 231 234 241 244 255 224 232 240 231 240 274 27 0 333 322 312 293 298 311 312 307 127 124 126 129 138 144 121 74 7 322 133 113 99 91 98 92 79 67 65 56 58 63 75 81 82 80 84 87 87 87 99 83 67 57 58 44 88 62 34
213 202 224 186 177 205 227 191 227 228 202 198 197 215 214 212 206 222 239 152 245 223 232 233 244 231 211 34 269 267 326 7 300 295 278 281 317 347 311 299 313 303 301 313 336 315 178 154 132 126 118 109 118 107 99 87 276 38 80 93 98 95 61 66 58 62 68 64 65 73 78 79 76 73 78 81 71 68 65 62 56 46 66 69 51 41
213 177 210 219 199 219 220 333 311 324 253 219 207 220 211 216 215 213 230 212 200 237 252 253 278 246 99 64 342 266 302 282 282 261 264 291 309 299 280 286 301 275 289 321 352 64 146 139 131 121 120 117 111 105 108 101 63 39 80 83 75 77 62 59 72 73 78 81 81 77 75 74 67 66 66 64 59 54 50 47 51 55 66 65 63 51
223 222 213 239 251 316 301 232 339 280 271 217 230 234 215 216 212 221 224 239 237 215 216 233 238 252 124 243 260 238 270 274 280 256 261 269 282 277 270 273 282 277 185 251 272 68 96 116 137 144 133 130 122 110 91 79 69 65 71 74 74 76 75 75 79 87 90 91 86 83 79 70 67 63 60 62 57 59 53 55 57 50 66 68 72 72
209 194 210 217 223 233 243 258 277 157 143 240 217 215 220 221 219 226 276 10 264 229 248 249 246 237 173 246 215 214 206 34 298 211 235 266 338 297 285 290 287 272 202 186 174 159 149 150 168 148 118 108 103 92 81 74 68 67 71 71 77 78 76 83 83 92 97 100 92 77 75 69 63 64 60 60 57 52 50 52 58 50 55 68 66 63
257 203 189 215 204 212 210 204 220 229 213 210 233 228 214 212 214 203 223 219 239 226 228 229 250 249 229 184 200 201 117 110 172 294 255 247 264 285 295 254 279 276 239 189 182 188 183 168 156 145 122 101 91 89 84 73 68 71 78 71 68 88 90 83 80 89 96 92 89 81 76 72 68 66 63 63 61 52 48 50 52 56 53 58 77 73
249 246 221 212 210 217 211 196 102 99 132 206 211 224 223 215 220 218 225 225 226 230 239 236 250 266 262 255 251 259 267 271 242 187 202 225 230 241 234 253 254 238 232 206 196 186 180 202 192 156 120 107 109 111 108 110 94 80 84 79 70 73 87 84 85 83 82 80 85 84 77 76 75 76 77 72 67 65 62 55 53 59 61 54 67 72
246 240 230 231 229 231 231 219 179 185 199 204 207 216 218 213 210 217 217 230 207 220 244 218 225 238 256 255 253 244 251 268 278 213 211 223 238 290 315 293 228 237 233 227 222 215 210 199 167 141 129 121 119 112 107 92 77 80 82 89 84 88 93 90 94 92 87 86 83 83 85 83 82 81 82 83 81 77 74 71 67 64 60 61 66 66
251 254 237 230 236 236 242 234 177 202 201 201 206 209 210 208 206 212 221 229 225 225 239 226 211 228 243 252 250 240 240 244 242 237 229 266 301 272 251 232 224 237 224 232 227 214 201 194 170 154 141 129 123 122 117 117 110 102 88 87 89 85 85 94 102 98 95 89 86 87 92 93 89 91 86 81 80 77 73 72 72 68 67 68 70 67
170 258 253 220 236 235 238 235 225 202 217 227 220 215 208 199 202 207 220 224 225 235 241 250 247 237 241 254 249 242 240 244 240 50 152 194 214 213 219 224 276 277 260 249 242 229 216 193 163 163 157 154 156 146 142 134 132 124 121 111 99 94 99 105 102 103 95 91 93 96 94 92 89 87 85 81 77 73 71 72 71 70 71 68 68 71
189 251 217 241 238 233 229 230 234 235 239 237 228 231 222 205 203 203 213 224 228 237 239 246 250 250 248 253 259 248 73 310 262 204 210 221 223 200 189 188 209 263 246 241 238 218 194 189 177 168 172 173 168 164 159 154 142 127 115 118 116 115 125 110 104 93 95 96 96 99 97 95 89 84 78 76 76 72 76 75 67 71 70 64 60 65
179 259 114 252 268 257 228 234 235 235 235 233 240 220 207 207 214 209 212 208 208 218 226 239 250 258 257 250 253 237 178 221 239 251 264 274 255 201 205 203 210 228 237 229 224 202 187 191 183 180 182 177 178 167 159 152 146 140 135 131 123 124 127 111 103 100 94 97 99 94 94 95 94 87 85 79 76 76 72 71 68 67 62 65 66 59
189 245 247 226 242 255 226 206 222 230 237 238 229 221 216 210 209 211 219 218 214 206 219 222 232 232 238 248 256 242 197 211 231 239 242 240 252 254 209 206 209 223 231 231 226 198 194 194 186 173 169 169 180 179 172 153 143 143 144 138 135 135 127 112 104 100 95 93 92 91 90 92 90 86 80 75 80 80 76 72 70 65 64 68 61 63
217 232 248 235 257 270 211 208 214 215 228 227 221 214 209 214 207 208 218 219 214 205 218 219 234 241 243 248 240 246 223 204 218 227 226 235 240 218 237 231 220 227 234 232 234 239 228 169 151 183 190 170 159 154 143 147 138 136 137 136 138 135 120 109 96 92 94 89 86 90 92 89 90 88 85 88 86 84 80 76 72 70 73 76 72 74
221 221 246 235 230 260 158 162 197 227 231 230 231 215 212 218 216 214 225 220 218 213 221 232 234 239 240 242 245 244 230 217 221 228 231 231 235 236 230 226 226 231 232 227 210 205 202 200 192 176 164 163 162 151 141 125 119 125 129 138 131 128 118 107 107 96 95 92 87 88 87 88 89 92 92 91 86 80 77 80 81 75 72 72 69 70
245 239 248 230 229 254 216 187 238 222 240 354 49 353 205 205 215 217 230 232 224 213 213 227 235 242 245 245 245 240 230 244 253 243 252 252 219 232 235 231 225 225 232 222 205 212 204 207 192 184 183 157 139 153 151 138 137 136 136 129 124 123 115 114 105 105 100 95 88 83 81 98 99 97 95 92 86 84 82 76 78 86 85 90 86 83
231 244 231 253 177 239 204 216 232 344 317 253 225 203 185 196 199 201 223 237 226 223 215 224 235 238 243 245 250 230 90 78 263 254 223 223 216 216 223 229 224 216 224 228 208 216 199 161 138 131 116 131 131 137 147 142 140 133 129 124 127 126 118 111 103 103 102 101 99 91 83 92 103 104 103 101 95 90 87 90 85 79 83 83 78 80
212 221 206 232 229 211 233 234 234 224 244 243 219 183 182 199 174 182 215 257 208 212 215 221 230 235 241 247 237 113 125 176 254 248 225 209 209 212 222 238 251 217 221 241 240 231 148 149 142 139 146 148 151 144 131 133 133 134 125 114 120 118 104 100 106 110 110 111 113 117 117 115 115 113 109 101 98 98 96 92 87 77 54 86 88 81
211 216 233 220 242 164 218 248 244 241 235 247 184 161 171 156 168 158 190 251 236 195 212 214 227 233 234 235 215 132 156 220 242 248 233 186 191 201 221 229 203 206 203 211 217 209 153 144 142 140 137 144 144 149 149 149 146 130 123 127 132 116 108 107 115 120 120 117 115 114 115 114 112 111 108 100 99 100 99 93 93 94 81 81 81 79
208 213 214 228 232 234 230 219 232 211 258 196 159 174 169 164 117 128 202 248 259 168 203 206 220 228 227 227 174 170 196 222 231 247 99 138 173 184 202 212 194 195 179 140 84 109 119 120 121 142 154 155 148 147 150 151 144 129 127 131 130 118 121 130 132 127 121 121 120 117 112 108 105 102 105 107 104 97 97 104 100 90 89 78 79 78
209 215 205 225 226 233 226 245 259 277 255 160 195 117 103 128 132 164 197 238 134 184 197 203 216 224 219 213 178 203 210 219 232 70 100 98 119 153 34 42 124 173 176 170 154 142 138 155 152 158 162 151 146 148 151 147 135 136 134 137 136 134 132 129 126 126 124 118 112 109 106 100 101 101 93 99 105 102 92 88 94 94 91 90 81 83
229 217 229 220 232 229 224 229 243 271 253 130 91 152 147 136 161 211 217 37 301 276 336 273 233 233 236 209 193 217 223 150 103 109 122 159 139 121 123 128 120 87 54 65 128 147 143 150 142 131 132 141 150 153 153 145 132 133 139 137 135 132 129 128 126 122 118 111 107 105 103 101 95 90 97 99 112 105 93 78 77 88 95 96 96 92
201 194 211 201 210 221 225 238 219 256 243 121 127 128 203 198 224 150 346 261 207 282 206 217 224 243 186 220 210 217 143 149 146 158 143 135 139 144 153 152 149 149 150 145 149 168 145 136 143 142 138 144 148 152 152 138 128 137 135 128 129 128 126 123 121 120 116 111 108 104 104 105 103 101 99 100 102 108 104 102 91 83 91 108 115 115
133 246 235 222 175 187 202 206 219 232 115 172 139 185 203 230 262 180 210 247 160 211 226 234 246 232 219 225 209 210 181 140 131 124 133 109 97 107 120 127 117 115 125 122 141 151 141 125 124 125 130 140 145 147 144 144 133 132 126 123 129 125 123 122 120 118 111 106 104 101 94 87 80 79 86 88 85 85 95 90 89 85 85 106 125 131
169 209 203 243 197 210 217 227 222 212 174 207 207 222 197 215 203 208 184 277 265 230 189 235 229 205 210 215 210 195 176 194 149 167 159 173 140 152 151 154 157 151 149 146 144 136 130 136 136 130 132 136 137 132 135 126 129 130 123 130 133 132 128 121 113 109 106 103 100 94 93 88 86 81 76 67 71 86 91 91 108 102 106 113 104 108
343 237 104 57 235 266 279 257 130 141 227 225 248 256 313 288 298 218 241 271 236 238 181 212 211 180 184 192 159 177 200 167 153 171 187 149 157 121 127 120 113 114 117 119 124 138 127 121 123 129 130 130 131 130 127 129 131 130 131 133 132 124 118 113 110 103 104 105 102 103 105 98 87 75 65 60 62 64 71 87 90 100 107 105 103 102
252 236 273 250 279 185 254 229 227 236 215 222 236 254 242 253 275 319 286 269 308 271 219 255 248 180 171 174 190 170 169 174 180 176 166 163 166 159 151 148 134 142 145 141 135 129 125 128 128 126 124 125 127 122 127 123 114 122 127 127 122 114 116 115 113 112 114 116 115 116 122 118 117 111 91 79 77 72 72 67 78 82 70 60 42 31
279 150 219 243 263 239 256 72 351 341 278 259 258 259 258 256 240 174 264 346 330 317 311 320 218 144 144 179 195 154 156 168 171 169 177 180 161 148 148 139 141 130 125 127 133 133 124 126 131 127 121 120 126 122 117 109 100 100 105 113 113 117 120 121 125 123 123 121 121 119 109 100 102 104 103 95 88 90 77 59 51 57 50 39 19 9
264 94 246 196 228 253 266 258 265 314 290 242 225 233 243 248 239 109 207 207 223 272 280 272 322 268 195 182 163 139 140 182 182 168 160 158 150 154 151 144 140 136 129 132 135 139 140 134 125 123 113 114 117 111 103 97 99 101 105 114 118 128 126 118 111 107 109 110 106 103 101 102 108 104 110 112 97 76 54 40 42 58 75 49 25 9
208 233 221 309 250 257 252 252 129 246 270 248 221 228 232 230 129 157 275 255 227 223 219 234 239 306 260 249 185 186 167 166 174 166 166 159 157 146 145 141 137 133 134 134 137 128 120 127 123 119 112 112 114 111 107 103 103 100 100 112 121 127 125 122 115 114 114 115 112 117 119 119 117 116 111 106 103 106 99 74 56 50 58 40 12 4
228 244 211 232 242 258 257 154 190 224 257 262 258 243 243 222 174 187 207 225 236 224 210 200 212 224 228 232 222 195 199 166 172 164 149 155 154 154 150 148 146 144 141 140 128 128 124 126 118 108 107 117 120 113 105 103 103 105 97 107 126 128 125 125 119 111 114 113 110 123 128 126 122 118 110 108 118 123 134 152 128 105 80 55 18 9